When you browse on this site, cookies collect data to enhance your experience and personalize the content and advertising you see.
Visit our Privacy Policy to learn more. By continuing to use the site, you agree to this use of cookies and data.
  • In Belgium
  • List of Countries
  • For 7 days
  • Water Temperature
  • Satellite Maps
  • Weather Map
  • Weather Widgets
  • user-avatar
    Login

    Hourly Weather Jackson Hole

    Today, 14 December, Friday

    Time Temperature Precipitation Wind Pressure Humidity
    00:00 -14°C° 0 mm 1 mps 574 mmHg 81%
    01:00 -14°C° 0 mm 1 mps 574 mmHg 80%
    02:00 -14°C° 0 mm 1 mps 574 mmHg 79%
    03:00 -14°C° 0 mm 1 mps 574 mmHg 78%
    04:00 -13°C° 0 mm 1 mps 574 mmHg 77%
    05:00 -13°C° 0 mm 1 mps 574 mmHg 77%
    06:00 -13°C° 0 mm 1 mps 574 mmHg 76%
    07:00 -15°C° 0 mm 2 mps 574 mmHg 76%
    08:00 -14°C° 0 mm 2 mps 574 mmHg 75%
    09:00 -10°C° 0 mm 1 mps 574 mmHg 75%
    10:00 -7°C° 0 mm 1 mps 575 mmHg 74%
    11:00 -3°C° 0 mm 1 mps 576 mmHg 74%
    12:00 -2°C° 0 mm 1 mps 576 mmHg 75%
    13:00 -1°C° 0 mm 1 mps 575 mmHg 76%
    14:00 0°C° 0 mm 1 mps 575 mmHg 77%
    15:00 -1°C° 0 mm 1 mps 574 mmHg 77%
    16:00 -3°C° 0 mm 1 mps 573 mmHg 78%
    17:00 -6°C° 0 mm 2 mps 572 mmHg 79%
    18:00 -7°C° 0 mm 2 mps 571 mmHg 78%
    19:00 -8°C° 0 mm 2 mps 571 mmHg 76%
    20:00 -9°C° 0 mm 2 mps 571 mmHg 74%
    21:00 -9°C° 0 mm 2 mps 570 mmHg 74%
    22:00 -9°C° 0 mm 2 mps 570 mmHg 74%
    23:00 -9°C° 0 mm 2 mps 570 mmHg 74%

    Tomorrow, 15 December, Saturday

    Time Temperature Precipitation Wind Pressure Humidity
    00:00 -8°C° 0 mm 2 mps 570 mmHg 75%
    01:00 -8°C° 0 mm 2 mps 570 mmHg 77%
    02:00 -8°C° 0 mm 2 mps 570 mmHg 78%
    03:00 -8°C° 0 mm 2 mps 569 mmHg 81%
    04:00 -9°C° 0 mm 2 mps 569 mmHg 84%
    05:00 -9°C° 0 mm 2 mps 569 mmHg 87%
    06:00 -8°C° 0.2 mm 2 mps 570 mmHg 89%
    07:00 -8°C° 0.2 mm 2 mps 570 mmHg 90%
    08:00 -8°C° 0.2 mm 3 mps 571 mmHg 92%
    09:00 -7°C° 0 mm 3 mps 572 mmHg 90%
    10:00 -6°C° 0 mm 3 mps 572 mmHg 88%
    11:00 -5°C° 0 mm 3 mps 573 mmHg 86%
    12:00 -5°C° 0 mm 3 mps 573 mmHg 85%
    13:00 -4°C° 0 mm 2 mps 573 mmHg 83%
    14:00 -4°C° 0 mm 2 mps 573 mmHg 82%
    15:00 -5°C° 0 mm 2 mps 573 mmHg 84%
    16:00 -6°C° 0 mm 1 mps 573 mmHg 87%
    17:00 -7°C° 0 mm 1 mps 572 mmHg 89%
    18:00 -8°C° 0 mm 1 mps 572 mmHg 89%
    19:00 -8°C° 0 mm 1 mps 572 mmHg 89%
    20:00 -9°C° 0 mm 1 mps 573 mmHg 89%
    21:00 -9°C° 0 mm 1 mps 573 mmHg 88%
    22:00 -12°C° 0 mm 2 mps 573 mmHg 88%
    23:00 -12°C° 0 mm 2 mps 573 mmHg 87%

    Day after tomorrow, 16 December, Sunday

    Time Temperature Precipitation Wind Pressure Humidity
    00:00 -12°C° 0 mm 2 mps 573 mmHg 86%
    01:00 -12°C° 0 mm 2 mps 573 mmHg 85%
    02:00 -12°C° 0 mm 2 mps 573 mmHg 83%
    03:00 -12°C° 0 mm 2 mps 573 mmHg 82%
    04:00 -12°C° 0 mm 2 mps 573 mmHg 81%
    05:00 -12°C° 0 mm 2 mps 573 mmHg 80%
    06:00 -10°C° 0 mm 2 mps 573 mmHg 79%
    07:00 -10°C° 0 mm 2 mps 573 mmHg 78%
    08:00 -10°C° 0 mm 2 mps 574 mmHg 77%
    09:00 -8°C° 0 mm 2 mps 574 mmHg 77%
    10:00 -3°C° 0 mm 1 mps 575 mmHg 77%
    11:00 -1°C° 0 mm 1 mps 576 mmHg 77%
    12:00 0°C° 0 mm 1 mps 576 mmHg 78%
    13:00 +1°C° 0 mm 1 mps 576 mmHg 80%
    14:00 +2°C° 0 mm 1 mps 576 mmHg 82%
    15:00 0°C° 0 mm 1 mps 575 mmHg 80%
    16:00 -1°C° 0 mm 1 mps 574 mmHg 78%
    17:00 -3°C° 0 mm 1 mps 574 mmHg 77%
    18:00 -5°C° 0 mm 2 mps 573 mmHg 75%
    19:00 -6°C° 0 mm 2 mps 573 mmHg 73%
    20:00 -7°C° 0 mm 2 mps 573 mmHg 71%
    21:00 -7°C° 0 mm 2 mps 573 mmHg 70%
    22:00 -8°C° 0 mm 2 mps 572 mmHg 69%
    23:00 -8°C° 0 mm 2 mps 572 mmHg 68%

    17 December, Monday

    Time Temperature Precipitation Wind Pressure Humidity
    00:00 -8°C° 0 mm 2 mps 572 mmHg 67%
    01:00 -8°C° 0 mm 2 mps 571 mmHg 67%
    02:00 -9°C° 0 mm 2 mps 571 mmHg 66%
    03:00 -9°C° 0 mm 2 mps 571 mmHg 66%
    04:00 -9°C° 0 mm 2 mps 571 mmHg 66%
    05:00 -9°C° 0 mm 2 mps 570 mmHg 66%
    06:00 -9°C° 0 mm 2 mps 570 mmHg 67%
    07:00 -9°C° 0 mm 2 mps 570 mmHg 67%
    08:00 -9°C° 0 mm 2 mps 570 mmHg 68%
    09:00 -7°C° 0 mm 2 mps 571 mmHg 69%
    10:00 -4°C° 0 mm 2 mps 572 mmHg 71%
    11:00 -2°C° 0 mm 2 mps 573 mmHg 72%
    12:00 -2°C° 0 mm 2 mps 572 mmHg 74%
    13:00 -2°C° 0 mm 2 mps 572 mmHg 76%
    14:00 -1°C° 0 mm 2 mps 572 mmHg 78%
    15:00 0°C° 0.1 mm 1 mps 572 mmHg 83%
    16:00 -1°C° 0.1 mm 1 mps 572 mmHg 87%
    17:00 -2°C° 0.1 mm 1 mps 571 mmHg 91%
    18:00 -3°C° 0.1 mm 1 mps 572 mmHg 92%
    19:00 -3°C° 0.1 mm 1 mps 572 mmHg 94%
    20:00 -3°C° 0.1 mm 1 mps 572 mmHg 95%
    21:00 -3°C° 0.1 mm 1 mps 572 mmHg 95%
    22:00 -3°C° 0.1 mm 1 mps 573 mmHg 95%
    23:00 -3°C° 0.1 mm 1 mps 573 mmHg 95%

    18 December, Tuesday

    Time Temperature Precipitation Wind Pressure Humidity
    00:00 -4°C° 0.1 mm 1 mps 573 mmHg 95%
    01:00 -4°C° 0.1 mm 1 mps 573 mmHg 95%
    02:00 -4°C° 0.1 mm 1 mps 573 mmHg 95%
    03:00 -4°C° 0 mm 1 mps 573 mmHg 95%
    04:00 -4°C° 0 mm 1 mps 573 mmHg 95%
    05:00 -6°C° 0 mm 1 mps 573 mmHg 95%
    06:00 -6°C° 0 mm 1 mps 573 mmHg 95%
    07:00 -7°C° 0 mm 1 mps 573 mmHg 95%
    08:00 -8°C° 0 mm 1 mps 573 mmHg 95%
    09:00 -6°C° 0 mm 1 mps 573 mmHg 92%
    10:00 -4°C° 0 mm 1 mps 574 mmHg 89%
    11:00 -2°C° 0 mm 1 mps 574 mmHg 87%
    12:00 -2°C° 0 mm 1 mps 574 mmHg 86%
    13:00 -1°C° 0 mm 1 mps 574 mmHg 85%
    14:00 -3°C° 0 mm 2 mps 574 mmHg 84%
    15:00 -2°C° 0 mm 1 mps 574 mmHg 86%
    16:00 -3°C° 0 mm 1 mps 574 mmHg 89%
    17:00 -4°C° 0 mm 1 mps 573 mmHg 91%
    18:00 -4°C° 0 mm 1 mps 573 mmHg 91%
    19:00 -6°C° 0 mm 1 mps 574 mmHg 91%
    20:00 -6°C° 0 mm 1 mps 574 mmHg 90%
    21:00 -7°C° 0 mm 1 mps 574 mmHg 90%
    22:00 -7°C° 0 mm 1 mps 574 mmHg 90%
    23:00 -7°C° 0 mm 1 mps 573 mmHg 90%

    19 December, Wednesday

    Time Temperature Precipitation Wind Pressure Humidity
    00:00 -7°C° 0 mm 1 mps 574 mmHg 90%
    01:00 -7°C° 0 mm 1 mps 574 mmHg 90%
    02:00 -7°C° 0 mm 1 mps 574 mmHg 90%
    03:00 -7°C° 0 mm 1 mps 574 mmHg 90%
    04:00 -7°C° 0 mm 1 mps 574 mmHg 90%
    05:00 -7°C° 0 mm 1 mps 574 mmHg 89%
    06:00 -7°C° 0 mm 1 mps 574 mmHg 89%
    07:00 -7°C° 0 mm 1 mps 574 mmHg 89%
    08:00 -7°C° 0 mm 1 mps 575 mmHg 89%
    09:00 -4°C° 0 mm 1 mps 575 mmHg 88%
    10:00 -2°C° 0 mm 1 mps 576 mmHg 86%
    11:00 0°C° 0 mm 1 mps 577 mmHg 85%
    12:00 0°C° 0 mm 1 mps 577 mmHg 86%
    13:00 +1°C° 0 mm 1 mps 577 mmHg 88%
    14:00 +1°C° 0 mm 1 mps 577 mmHg 89%
    15:00 0°C° 0 mm 1 mps 577 mmHg 89%
    16:00 -1°C° 0 mm 1 mps 576 mmHg 89%
    17:00 -2°C° 0 mm 1 mps 576 mmHg 89%
    18:00 -3°C° 0 mm 1 mps 576 mmHg 88%
    19:00 -3°C° 0 mm 1 mps 576 mmHg 87%
    20:00 -4°C° 0 mm 1 mps 576 mmHg 87%
    21:00 -4°C° 0 mm 1 mps 576 mmHg 86%
    22:00 -6°C° 0 mm 1 mps 576 mmHg 85%
    23:00 -6°C° 0 mm 1 mps 576 mmHg 85%
    Show more